owner,sensor,date,latitude,longitude,vertical_datum,sea_water_temperature,qcFlag
BP,ioos:station:wmo:42907:1,2022-06-01T18:11:00Z,27.1459,-90.3195,15.3,27.4,11111222
BP,ioos:station:wmo:42907:1,2022-06-01T18:21:00Z,27.1460,-90.3194,15.3,27.5,11111222
BP,ioos:station:wmo:42907:1,2022-06-02T14:34:00Z,27.1460,-90.3194,15.6,27.7,11111222
BP,ioos:station:wmo:42907:1,2022-06-02T16:50:00Z,27.1460,-90.3194,15.5,27.8,11111222
BP,ioos:station:wmo:42907:1,2022-06-05T03:25:00Z,27.1380,-90.3184,15.1,28.0,11111222
BP,ioos:station:wmo:42907:1,2022-06-05T04:08:00Z,27.1380,-90.3184,15.1,28.0,11111222
BP,ioos:station:wmo:42907:1,2022-06-05T08:00:00Z,27.1380,-90.3183,15.2,27.9,11111222
BP,ioos:station:wmo:42907:1,2022-06-05T08:10:00Z,27.1380,-90.3183,15.2,27.9,11111222
BP,ioos:station:wmo:42907:1,2022-06-05T08:20:00Z,27.1380,-90.3183,15.2,27.9,11111222
BP,ioos:station:wmo:42907:1,2022-06-05T09:28:00Z,27.1382,-90.3184,15.2,27.9,11111222
BP,ioos:station:wmo:42907:1,2022-06-05T10:42:00Z,27.1416,-90.3195,15.2,27.9,11111222
BP,ioos:station:wmo:42907:1,2022-06-08T13:16:00Z,27.1486,-90.3102,16.5,28.1,11111222
BP,ioos:station:wmo:42907:1,2022-06-08T13:26:00Z,27.1486,-90.3102,16.6,28.1,11111222
BP,ioos:station:wmo:42907:1,2022-06-08T13:36:00Z,27.1486,-90.3102,16.6,28.2,11111222
BP,ioos:station:wmo:42907:1,2022-06-08T13:46:00Z,27.1486,-90.3103,16.4,28.2,11111222
BP,ioos:station:wmo:42907:1,2022-06-08T13:56:00Z,27.1486,-90.3102,16.3,28.2,11111222
BP,ioos:station:wmo:42907:1,2022-06-08T14:06:00Z,27.1486,-90.3103,16.4,28.2,11111222
BP,ioos:station:wmo:42907:1,2022-06-08T14:16:00Z,27.1486,-90.3102,16.5,28.2,11111222
BP,ioos:station:wmo:42907:1,2022-06-08T14:26:00Z,27.1486,-90.3103,16.5,28.2,11111222
BP,ioos:station:wmo:42907:1,2022-06-08T14:36:00Z,27.1486,-90.3103,16.4,28.2,11111222
BP,ioos:station:wmo:42907:1,2022-06-08T14:46:00Z,27.1486,-90.3102,16.4,28.2,11111222
BP,ioos:station:wmo:42907:1,2022-06-08T14:56:00Z,27.1486,-90.3102,16.5,28.1,11111222
BP,ioos:station:wmo:42907:1,2022-06-08T15:06:00Z,27.1486,-90.3102,16.5,28.2,11111222
BP,ioos:station:wmo:42907:1,2022-06-08T15:16:00Z,27.1486,-90.3103,16.5,28.2,11111222
BP,ioos:station:wmo:42907:1,2022-06-08T15:26:00Z,27.1486,-90.3103,16.4,28.2,11111222
BP,ioos:station:wmo:42907:1,2022-06-08T15:36:00Z,27.1486,-90.3103,16.4,28.2,11111222
BP,ioos:station:wmo:42907:1,2022-06-08T15:46:00Z,27.1486,-90.3103,16.4,28.2,11111222
BP,ioos:station:wmo:42907:1,2022-06-08T15:56:00Z,27.1486,-90.3103,16.3,28.2,11111222
BP,ioos:station:wmo:42907:1,2022-06-08T16:06:00Z,27.1486,-90.3103,16.5,28.2,11111222
BP,ioos:station:wmo:42907:1,2022-06-08T16:16:00Z,27.1486,-90.3102,16.5,28.2,11111222
BP,ioos:station:wmo:42907:1,2022-06-08T16:26:00Z,27.1486,-90.3103,16.4,28.2,11111222
BP,ioos:station:wmo:42907:1,2022-06-08T16:36:00Z,27.1486,-90.3103,16.3,28.2,11111222
BP,ioos:station:wmo:42907:1,2022-06-08T16:46:00Z,27.1486,-90.3103,16.3,28.2,11111222
BP,ioos:station:wmo:42907:1,2022-06-08T16:56:00Z,27.1486,-90.3103,16.3,28.2,11111222
BP,ioos:station:wmo:42907:1,2022-06-08T17:06:00Z,27.1486,-90.3103,16.4,28.2,11111222
BP,ioos:station:wmo:42907:1,2022-06-08T17:16:00Z,27.1486,-90.3103,16.4,28.2,11111222
BP,ioos:station:wmo:42907:1,2022-06-08T17:26:00Z,27.1486,-90.3103,16.4,28.2,11111222
BP,ioos:station:wmo:42907:1,2022-06-08T17:36:00Z,27.1486,-90.3103,16.3,28.2,11111222
BP,ioos:station:wmo:42907:1,2022-06-08T17:46:00Z,27.1486,-90.3103,16.4,28.2,11111222
BP,ioos:station:wmo:42907:1,2022-06-08T17:56:00Z,27.1486,-90.3103,16.5,28.2,11111222
BP,ioos:station:wmo:42907:1,2022-06-08T18:06:00Z,27.1486,-90.3103,16.5,28.2,11111222
BP,ioos:station:wmo:42907:1,2022-06-08T18:16:00Z,27.1486,-90.3103,16.4,28.1,11111222
BP,ioos:station:wmo:42907:1,2022-06-08T18:26:00Z,27.1486,-90.3103,16.4,27.9,11111222
BP,ioos:station:wmo:42907:1,2022-06-08T18:36:00Z,27.1486,-90.3103,16.3,27.9,11111222
BP,ioos:station:wmo:42907:1,2022-06-08T18:46:00Z,27.1486,-90.3103,16.4,27.8,11111222
BP,ioos:station:wmo:42907:1,2022-06-08T18:56:00Z,27.1486,-90.3103,16.4,27.8,11111222
BP,ioos:station:wmo:42907:1,2022-06-08T19:07:00Z,27.1486,-90.3103,16.4,27.9,11111222
BP,ioos:station:wmo:42907:1,2022-06-08T19:17:00Z,27.1486,-90.3103,16.4,27.9,11111222
BP,ioos:station:wmo:42907:1,2022-06-08T19:27:00Z,27.1486,-90.3103,16.6,27.9,11111222
BP,ioos:station:wmo:42907:1,2022-06-08T19:37:00Z,27.1486,-90.3102,16.6,27.8,11111222
BP,ioos:station:wmo:42907:1,2022-06-08T19:47:00Z,27.1486,-90.3103,16.5,27.9,11111222
BP,ioos:station:wmo:42907:1,2022-06-08T19:57:00Z,27.1486,-90.3102,16.5,27.9,11111222
BP,ioos:station:wmo:42907:1,2022-06-08T20:07:00Z,27.1486,-90.3103,16.3,27.9,11111222
BP,ioos:station:wmo:42907:1,2022-06-08T20:17:00Z,27.1486,-90.3103,16.2,27.9,11111222
BP,ioos:station:wmo:42907:1,2022-06-08T20:27:00Z,27.1486,-90.3103,16.4,27.9,11111222
BP,ioos:station:wmo:42907:1,2022-06-08T20:37:00Z,27.1486,-90.3102,16.5,27.9,11111222
BP,ioos:station:wmo:42907:1,2022-06-08T20:47:00Z,27.1486,-90.3102,16.5,27.8,11111222
BP,ioos:station:wmo:42907:1,2022-06-08T20:57:00Z,27.1486,-90.3102,16.5,27.8,11111222
BP,ioos:station:wmo:42907:1,2022-06-08T21:07:00Z,27.1486,-90.3102,16.6,27.8,11111222
BP,ioos:station:wmo:42907:1,2022-06-08T21:17:00Z,27.1486,-90.3103,16.3,27.9,11111222
BP,ioos:station:wmo:42907:1,2022-06-08T21:27:00Z,27.1486,-90.3103,16.3,27.9,11111222
BP,ioos:station:wmo:42907:1,2022-06-08T21:37:00Z,27.1486,-90.3103,16.2,27.9,11111222
BP,ioos:station:wmo:42907:1,2022-06-08T21:47:00Z,27.1486,-90.3103,16.4,27.9,11111222
BP,ioos:station:wmo:42907:1,2022-06-08T21:57:00Z,27.1486,-90.3102,16.5,27.9,11111222
BP,ioos:station:wmo:42907:1,2022-06-08T22:07:00Z,27.1486,-90.3103,16.4,27.9,11111222
BP,ioos:station:wmo:42907:1,2022-06-08T22:17:00Z,27.1486,-90.3103,16.4,27.8,11111222
BP,ioos:station:wmo:42907:1,2022-06-08T22:27:00Z,27.1486,-90.3103,16.4,27.9,11111222
BP,ioos:station:wmo:42907:1,2022-06-08T22:37:00Z,27.1486,-90.3103,16.3,27.9,11111222
BP,ioos:station:wmo:42907:1,2022-06-08T22:47:00Z,27.1486,-90.3102,16.2,27.9,11111222
BP,ioos:station:wmo:42907:1,2022-06-08T22:57:00Z,27.1486,-90.3103,16.5,27.9,11111222
BP,ioos:station:wmo:42907:1,2022-06-08T23:07:00Z,27.1486,-90.3103,16.4,27.9,11111222
BP,ioos:station:wmo:42907:1,2022-06-08T23:17:00Z,27.1486,-90.3103,16.4,27.8,11111222
BP,ioos:station:wmo:42907:1,2022-06-08T23:27:00Z,27.1486,-90.3103,16.4,27.8,11111222
BP,ioos:station:wmo:42907:1,2022-06-08T23:37:00Z,27.1486,-90.3103,16.4,27.9,11111222
BP,ioos:station:wmo:42907:1,2022-06-08T23:47:00Z,27.1486,-90.3103,16.4,27.8,11111222
BP,ioos:station:wmo:42907:1,2022-06-08T23:57:00Z,27.1486,-90.3103,16.3,27.8,11111222
BP,ioos:station:wmo:42907:1,2022-06-09T00:07:00Z,27.1486,-90.3103,16.4,27.7,11111222
BP,ioos:station:wmo:42907:1,2022-06-09T00:17:00Z,27.1486,-90.3103,16.4,27.8,11111222
BP,ioos:station:wmo:42907:1,2022-06-09T00:27:00Z,27.1486,-90.3103,16.4,27.8,11111222
BP,ioos:station:wmo:42907:1,2022-06-09T00:37:00Z,27.1486,-90.3103,16.4,27.7,11111222
BP,ioos:station:wmo:42907:1,2022-06-09T00:47:00Z,27.1486,-90.3103,16.3,27.7,11111222
BP,ioos:station:wmo:42907:1,2022-06-09T00:57:00Z,27.1486,-90.3103,16.4,27.7,11111222
BP,ioos:station:wmo:42907:1,2022-06-09T01:07:00Z,27.1486,-90.3103,16.3,27.7,11111222
BP,ioos:station:wmo:42907:1,2022-06-09T01:17:00Z,27.1486,-90.3102,16.4,27.7,11111222
BP,ioos:station:wmo:42907:1,2022-06-09T01:27:00Z,27.1486,-90.3102,16.5,27.8,11111222
BP,ioos:station:wmo:42907:1,2022-06-09T01:37:00Z,27.1486,-90.3102,16.5,27.7,11111222
BP,ioos:station:wmo:42907:1,2022-06-09T01:47:00Z,27.1486,-90.3103,16.4,27.7,11111222
BP,ioos:station:wmo:42907:1,2022-06-09T01:57:00Z,27.1486,-90.3103,16.3,27.7,11111222
BP,ioos:station:wmo:42907:1,2022-06-09T02:07:00Z,27.1486,-90.3103,16.3,27.7,11111222
BP,ioos:station:wmo:42907:1,2022-06-09T02:18:00Z,27.1486,-90.3103,16.4,27.7,11111222
BP,ioos:station:wmo:42907:1,2022-06-09T02:28:00Z,27.1486,-90.3103,16.4,27.7,11111222
BP,ioos:station:wmo:42907:1,2022-06-09T02:38:00Z,27.1496,-90.3102,16.4,27.8,11111222
BP,ioos:station:wmo:42907:1,2022-06-09T02:48:00Z,27.1513,-90.3100,16.4,27.9,11111222
BP,ioos:station:wmo:42907:1,2022-06-09T02:58:00Z,27.1522,-90.3100,16.3,27.8,11111222
BP,ioos:station:wmo:42907:1,2022-06-09T03:08:00Z,27.1533,-90.3098,16.3,28.1,11111222
BP,ioos:station:wmo:42907:1,2022-06-09T03:18:00Z,27.1539,-90.3098,16.2,27.8,11111222
BP,ioos:station:wmo:42907:1,2022-06-09T03:28:00Z,27.1540,-90.3098,16.1,28.2,11111222
BP,ioos:station:wmo:42907:1,2022-06-09T03:38:00Z,27.1540,-90.3098,16.1,27.9,11111222
BP,ioos:station:wmo:42907:1,2022-06-09T03:48:00Z,27.1540,-90.3098,16.1,27.8,11111222
BP,ioos:station:wmo:42907:1,2022-06-09T03:58:00Z,27.1540,-90.3098,16.2,27.9,11111222
BP,ioos:station:wmo:42907:1,2022-06-09T04:08:00Z,27.1540,-90.3098,16.2,27.9,11111222
BP,ioos:station:wmo:42907:1,2022-06-09T04:18:00Z,27.1540,-90.3098,16.2,27.9,11111222
BP,ioos:station:wmo:42907:1,2022-06-09T04:28:00Z,27.1540,-90.3098,16.2,28.0,11111222
BP,ioos:station:wmo:42907:1,2022-06-09T04:38:00Z,27.1540,-90.3098,16.2,28.1,11111222
BP,ioos:station:wmo:42907:1,2022-06-09T04:48:00Z,27.1540,-90.3098,16.2,28.0,11111222
BP,ioos:station:wmo:42907:1,2022-06-09T04:58:00Z,27.1540,-90.3098,16.2,28.0,11111222
BP,ioos:station:wmo:42907:1,2022-06-09T05:08:00Z,27.1540,-90.3098,16.1,28.0,11111222
BP,ioos:station:wmo:42907:1,2022-06-09T05:18:00Z,27.1540,-90.3098,16.0,28.0,11111222
BP,ioos:station:wmo:42907:1,2022-06-09T05:28:00Z,27.1540,-90.3098,16.1,28.0,11111222
BP,ioos:station:wmo:42907:1,2022-06-09T05:38:00Z,27.1540,-90.3098,16.0,28.0,11111222
BP,ioos:station:wmo:42907:1,2022-06-09T05:48:00Z,27.1540,-90.3098,16.1,28.0,11111222
BP,ioos:station:wmo:42907:1,2022-06-09T05:58:00Z,27.1540,-90.3098,16.0,28.0,11111222
BP,ioos:station:wmo:42907:1,2022-06-09T06:08:00Z,27.1540,-90.3098,16.2,27.9,11111222
BP,ioos:station:wmo:42907:1,2022-06-09T06:18:00Z,27.1540,-90.3098,16.2,27.9,11111222
BP,ioos:station:wmo:42907:1,2022-06-09T06:28:00Z,27.1540,-90.3098,16.2,27.9,11111222
BP,ioos:station:wmo:42907:1,2022-06-09T06:38:00Z,27.1540,-90.3098,16.2,27.9,11111222
BP,ioos:station:wmo:42907:1,2022-06-09T06:48:00Z,27.1540,-90.3098,16.2,27.9,11111222
BP,ioos:station:wmo:42907:1,2022-06-09T06:58:00Z,27.1540,-90.3098,16.3,27.9,11111222
BP,ioos:station:wmo:42907:1,2022-06-09T07:08:00Z,27.1540,-90.3098,16.2,27.9,11111222
BP,ioos:station:wmo:42907:1,2022-06-09T07:18:00Z,27.1540,-90.3098,16.4,27.9,11111222
BP,ioos:station:wmo:42907:1,2022-06-09T07:28:00Z,27.1540,-90.3098,16.4,27.9,11111222
BP,ioos:station:wmo:42907:1,2022-06-09T07:38:00Z,27.1540,-90.3098,16.4,27.8,11111222
BP,ioos:station:wmo:42907:1,2022-06-09T07:48:00Z,27.1540,-90.3098,16.4,27.8,11111222
BP,ioos:station:wmo:42907:1,2022-06-09T07:58:00Z,27.1536,-90.3098,16.4,27.9,11111222
BP,ioos:station:wmo:42907:1,2022-06-09T08:08:00Z,27.1529,-90.3099,16.4,28.1,11111222
BP,ioos:station:wmo:42907:1,2022-06-09T08:18:00Z,27.1521,-90.3100,16.4,28.1,11111222
BP,ioos:station:wmo:42907:1,2022-06-09T08:28:00Z,27.1513,-90.3101,16.4,28.1,11111222
BP,ioos:station:wmo:42907:1,2022-06-09T08:38:00Z,27.1504,-90.3102,16.4,28.1,11111222
BP,ioos:station:wmo:42907:1,2022-06-09T08:48:00Z,27.1496,-90.3102,16.4,28.1,11111222
BP,ioos:station:wmo:42907:1,2022-06-09T08:58:00Z,27.1495,-90.3103,16.4,27.9,11111222
BP,ioos:station:wmo:42907:1,2022-06-09T09:08:00Z,27.1495,-90.3102,16.4,27.6,11111222
BP,ioos:station:wmo:42907:1,2022-06-09T09:18:00Z,27.1495,-90.3102,16.5,27.6,11111222
BP,ioos:station:wmo:42907:1,2022-06-09T09:28:00Z,27.1495,-90.3102,16.5,27.6,11111222
BP,ioos:station:wmo:42907:1,2022-06-09T09:39:00Z,27.1495,-90.3102,16.5,27.7,11111222
BP,ioos:station:wmo:42907:1,2022-06-09T09:49:00Z,27.1495,-90.3102,16.5,27.7,11111222
BP,ioos:station:wmo:42907:1,2022-06-09T09:59:00Z,27.1495,-90.3102,16.5,27.8,11111222
BP,ioos:station:wmo:42907:1,2022-06-09T10:09:00Z,27.1495,-90.3102,16.5,27.9,11111222
BP,ioos:station:wmo:42907:1,2022-06-09T10:19:00Z,27.1495,-90.3102,16.4,28.3,11111222
BP,ioos:station:wmo:42907:1,2022-06-09T10:29:00Z,27.1495,-90.3102,16.4,28.3,11111222
BP,ioos:station:wmo:42907:1,2022-06-09T10:39:00Z,27.1495,-90.3102,16.4,28.4,11111222
BP,ioos:station:wmo:42907:1,2022-06-09T10:49:00Z,27.1495,-90.3102,16.4,28.4,11111222
BP,ioos:station:wmo:42907:1,2022-06-09T10:59:00Z,27.1495,-90.3102,16.4,28.4,11111222
BP,ioos:station:wmo:42907:1,2022-06-09T11:09:00Z,27.1495,-90.3103,16.4,28.4,11111222
BP,ioos:station:wmo:42907:1,2022-06-09T11:19:00Z,27.1495,-90.3102,16.3,28.4,11111222
BP,ioos:station:wmo:42907:1,2022-06-09T11:29:00Z,27.1495,-90.3102,16.4,28.3,11111222
BP,ioos:station:wmo:42907:1,2022-06-09T11:39:00Z,27.1495,-90.3103,16.4,28.3,11111222
BP,ioos:station:wmo:42907:1,2022-06-09T11:49:00Z,27.1495,-90.3102,16.4,28.3,11111222
BP,ioos:station:wmo:42907:1,2022-06-09T11:59:00Z,27.1495,-90.3103,16.4,28.3,11111222
BP,ioos:station:wmo:42907:1,2022-06-09T12:09:00Z,27.1495,-90.3102,16.4,28.2,11111222
BP,ioos:station:wmo:42907:1,2022-06-09T12:19:00Z,27.1495,-90.3102,16.6,28.1,11111222
BP,ioos:station:wmo:42907:1,2022-06-09T12:29:00Z,27.1495,-90.3102,16.5,28.1,11111222
BP,ioos:station:wmo:42907:1,2022-06-09T12:39:00Z,27.1495,-90.3102,16.5,28.1,11111222
BP,ioos:station:wmo:42907:1,2022-06-09T12:49:00Z,27.1495,-90.3102,16.5,28.2,11111222
BP,ioos:station:wmo:42907:1,2022-06-09T12:59:00Z,27.1495,-90.3102,16.4,28.1,11111222
BP,ioos:station:wmo:42907:1,2022-06-09T13:09:00Z,27.1495,-90.3102,16.5,28.1,11111222
BP,ioos:station:wmo:42907:1,2022-06-09T13:19:00Z,27.1495,-90.3102,16.5,28.1,11111222
BP,ioos:station:wmo:42907:1,2022-06-09T13:29:00Z,27.1495,-90.3102,16.5,28.1,11111222
BP,ioos:station:wmo:42907:1,2022-06-09T13:39:00Z,27.1495,-90.3102,16.5,28.1,11111222
BP,ioos:station:wmo:42907:1,2022-06-09T13:49:00Z,27.1495,-90.3102,16.5,28.1,11111222
BP,ioos:station:wmo:42907:1,2022-06-09T13:59:00Z,27.1495,-90.3102,16.5,28.1,11111222
BP,ioos:station:wmo:42907:1,2022-06-09T14:09:00Z,27.1495,-90.3102,16.5,28.1,11111222
BP,ioos:station:wmo:42907:1,2022-06-09T14:19:00Z,27.1495,-90.3102,16.4,28.1,11111222
BP,ioos:station:wmo:42907:1,2022-06-09T14:29:00Z,27.1495,-90.3102,16.4,28.1,11111222
BP,ioos:station:wmo:42907:1,2022-06-09T14:39:00Z,27.1495,-90.3102,16.4,28.1,11111222
BP,ioos:station:wmo:42907:1,2022-06-09T14:49:00Z,27.1495,-90.3103,16.4,28.1,11111222
BP,ioos:station:wmo:42907:1,2022-06-09T14:59:00Z,27.1495,-90.3102,16.4,28.1,11111222
BP,ioos:station:wmo:42907:1,2022-06-09T15:09:00Z,27.1495,-90.3102,16.4,28.1,11111222
BP,ioos:station:wmo:42907:1,2022-06-09T15:19:00Z,27.1495,-90.3102,16.4,28.1,11111222
BP,ioos:station:wmo:42907:1,2022-06-09T15:29:00Z,27.1495,-90.3103,16.4,28.1,11111222
BP,ioos:station:wmo:42907:1,2022-06-09T15:39:00Z,27.1495,-90.3102,16.4,28.1,11111222
BP,ioos:station:wmo:42907:1,2022-06-09T15:49:00Z,27.1495,-90.3102,16.5,28.1,11111222
BP,ioos:station:wmo:42907:1,2022-06-09T15:59:00Z,27.1495,-90.3102,16.6,28.2,11111222
BP,ioos:station:wmo:42907:1,2022-06-09T16:09:00Z,27.1495,-90.3102,16.5,28.2,11111222
BP,ioos:station:wmo:42907:1,2022-06-09T16:19:00Z,27.1495,-90.3102,16.6,28.2,11111222
BP,ioos:station:wmo:42907:1,2022-06-09T16:29:00Z,27.1495,-90.3102,16.6,28.2,11111222
BP,ioos:station:wmo:42907:1,2022-06-09T16:39:00Z,27.1495,-90.3102,16.6,28.2,11111222
BP,ioos:station:wmo:42907:1,2022-06-09T16:49:00Z,27.1495,-90.3102,16.5,28.2,11111222
BP,ioos:station:wmo:42907:1,2022-06-09T17:00:00Z,27.1495,-90.3102,16.5,28.1,11111222
BP,ioos:station:wmo:42907:1,2022-06-09T17:10:00Z,27.1495,-90.3102,16.5,28.1,11111222
BP,ioos:station:wmo:42907:1,2022-06-09T17:20:00Z,27.1495,-90.3102,16.5,28.0,11111222
BP,ioos:station:wmo:42907:1,2022-06-09T17:30:00Z,27.1495,-90.3102,16.6,28.0,11111222
BP,ioos:station:wmo:42907:1,2022-06-09T17:40:00Z,27.1495,-90.3102,16.6,28.0,11111222
BP,ioos:station:wmo:42907:1,2022-06-09T17:50:00Z,27.1495,-90.3103,16.5,28.1,11111222
BP,ioos:station:wmo:42907:1,2022-06-09T18:00:00Z,27.1495,-90.3103,16.3,28.1,11111222
BP,ioos:station:wmo:42907:1,2022-06-09T18:10:00Z,27.1495,-90.3102,16.5,28.0,11111222
BP,ioos:station:wmo:42907:1,2022-06-09T18:20:00Z,27.1495,-90.3102,16.5,28.0,11111222
BP,ioos:station:wmo:42907:1,2022-06-09T18:30:00Z,27.1495,-90.3102,16.6,28.0,11111222
BP,ioos:station:wmo:42907:1,2022-06-09T18:40:00Z,27.1495,-90.3102,16.5,28.0,11111222
BP,ioos:station:wmo:42907:1,2022-06-09T18:50:00Z,27.1495,-90.3102,16.6,28.0,11111222
BP,ioos:station:wmo:42907:1,2022-06-09T19:00:00Z,27.1495,-90.3102,16.4,28.0,11111222
BP,ioos:station:wmo:42907:1,2022-06-09T19:10:00Z,27.1495,-90.3102,16.5,28.1,11111222
BP,ioos:station:wmo:42907:1,2022-06-09T19:20:00Z,27.1495,-90.3103,16.4,28.0,11111222
BP,ioos:station:wmo:42907:1,2022-06-09T19:30:00Z,27.1495,-90.3103,16.3,28.1,11111222
BP,ioos:station:wmo:42907:1,2022-06-09T19:40:00Z,27.1495,-90.3103,16.3,28.1,11111222
BP,ioos:station:wmo:42907:1,2022-06-09T19:50:00Z,27.1495,-90.3103,16.3,28.1,11111222
BP,ioos:station:wmo:42907:1,2022-06-09T20:00:00Z,27.1495,-90.3102,16.3,28.1,11111222
BP,ioos:station:wmo:42907:1,2022-06-09T20:10:00Z,27.1495,-90.3102,16.4,28.1,11111222
BP,ioos:station:wmo:42907:1,2022-06-09T20:20:00Z,27.1495,-90.3102,16.4,28.1,11111222
BP,ioos:station:wmo:42907:1,2022-06-09T20:30:00Z,27.1495,-90.3103,16.4,28.1,11111222
BP,ioos:station:wmo:42907:1,2022-06-09T20:40:00Z,27.1495,-90.3103,16.3,28.1,11111222
BP,ioos:station:wmo:42907:1,2022-06-09T20:50:00Z,27.1495,-90.3103,16.3,28.1,11111222
BP,ioos:station:wmo:42907:1,2022-06-09T21:00:00Z,27.1495,-90.3103,16.3,28.0,11111222
BP,ioos:station:wmo:42907:1,2022-06-09T21:10:00Z,27.1495,-90.3103,16.3,27.9,11111222
BP,ioos:station:wmo:42907:1,2022-06-09T21:20:00Z,27.1495,-90.3102,16.5,27.9,11111222
BP,ioos:station:wmo:42907:1,2022-06-09T21:30:00Z,27.1495,-90.3102,16.7,27.9,11111222
BP,ioos:station:wmo:42907:1,2022-06-09T21:40:00Z,27.1495,-90.3102,16.8,27.9,11111222
BP,ioos:station:wmo:42907:1,2022-06-09T21:50:00Z,27.1495,-90.3102,16.8,27.8,11111222
BP,ioos:station:wmo:42907:1,2022-06-09T22:00:00Z,27.1495,-90.3102,16.5,27.9,11111222
BP,ioos:station:wmo:42907:1,2022-06-09T22:10:00Z,27.1495,-90.3102,16.4,28.0,11111222
BP,ioos:station:wmo:42907:1,2022-06-09T22:20:00Z,27.1495,-90.3102,16.4,28.0,11111222
BP,ioos:station:wmo:42907:1,2022-06-09T22:30:00Z,27.1495,-90.3102,16.4,28.0,11111222
BP,ioos:station:wmo:42907:1,2022-06-09T22:40:00Z,27.1495,-90.3102,16.4,27.7,11111222
BP,ioos:station:wmo:42907:1,2022-06-09T22:50:00Z,27.1495,-90.3102,16.4,27.6,11111222
BP,ioos:station:wmo:42907:1,2022-06-09T23:00:00Z,27.1495,-90.3102,16.4,27.5,11111222
BP,ioos:station:wmo:42907:1,2022-06-09T23:10:00Z,27.1495,-90.3102,16.4,27.5,11111222
BP,ioos:station:wmo:42907:1,2022-06-09T23:20:00Z,27.1495,-90.3102,16.3,27.5,11111222
BP,ioos:station:wmo:42907:1,2022-06-09T23:30:00Z,27.1495,-90.3103,16.4,27.6,11111222
BP,ioos:station:wmo:42907:1,2022-06-09T23:40:00Z,27.1495,-90.3103,16.3,27.5,11111222
BP,ioos:station:wmo:42907:1,2022-06-09T23:50:00Z,27.1495,-90.3102,16.2,27.6,11111222
BP,ioos:station:wmo:42907:1,2022-06-10T00:00:00Z,27.1495,-90.3102,16.3,27.5,11111222
BP,ioos:station:wmo:42907:1,2022-06-10T00:10:00Z,27.1495,-90.3103,16.3,27.5,11111222
BP,ioos:station:wmo:42907:1,2022-06-10T00:21:00Z,27.1495,-90.3103,16.3,27.4,11111222
BP,ioos:station:wmo:42907:1,2022-06-10T00:31:00Z,27.1495,-90.3103,16.2,27.3,11111222
BP,ioos:station:wmo:42907:1,2022-06-10T00:41:00Z,27.1495,-90.3103,16.1,27.5,11111222
BP,ioos:station:wmo:42907:1,2022-06-10T00:51:00Z,27.1495,-90.3103,16.2,27.6,11111222
BP,ioos:station:wmo:42907:1,2022-06-10T01:01:00Z,27.1495,-90.3103,16.1,27.6,11111222
BP,ioos:station:wmo:42907:1,2022-06-10T01:11:00Z,27.1495,-90.3103,16.1,27.4,11111222
BP,ioos:station:wmo:42907:1,2022-06-10T01:21:00Z,27.1495,-90.3103,16.3,27.3,11111222
BP,ioos:station:wmo:42907:1,2022-06-10T01:31:00Z,27.1495,-90.3102,16.4,27.3,11111222
BP,ioos:station:wmo:42907:1,2022-06-10T01:41:00Z,27.1495,-90.3103,16.2,27.2,11111222
BP,ioos:station:wmo:42907:1,2022-06-10T01:51:00Z,27.1495,-90.3102,16.3,27.2,11111222
BP,ioos:station:wmo:42907:1,2022-06-10T02:01:00Z,27.1495,-90.3103,16.3,27.5,11111222
BP,ioos:station:wmo:42907:1,2022-06-10T02:11:00Z,27.1495,-90.3103,16.0,27.8,11111222
BP,ioos:station:wmo:42907:1,2022-06-10T02:21:00Z,27.1495,-90.3103,16.0,27.8,11111222
BP,ioos:station:wmo:42907:1,2022-06-10T02:31:00Z,27.1495,-90.3103,16.1,27.8,11111222
BP,ioos:station:wmo:42907:1,2022-06-10T02:41:00Z,27.1495,-90.3103,16.0,27.8,11111222
BP,ioos:station:wmo:42907:1,2022-06-10T02:51:00Z,27.1495,-90.3103,16.2,27.8,11111222
BP,ioos:station:wmo:42907:1,2022-06-10T03:01:00Z,27.1495,-90.3103,16.2,27.9,11111222
BP,ioos:station:wmo:42907:1,2022-06-10T03:11:00Z,27.1495,-90.3103,16.1,27.8,11111222
BP,ioos:station:wmo:42907:1,2022-06-10T03:21:00Z,27.1495,-90.3103,16.2,27.9,11111222
BP,ioos:station:wmo:42907:1,2022-06-10T03:31:00Z,27.1495,-90.3103,16.3,27.7,11111222
BP,ioos:station:wmo:42907:1,2022-06-10T03:41:00Z,27.1495,-90.3103,16.3,27.6,11111222
BP,ioos:station:wmo:42907:1,2022-06-10T03:51:00Z,27.1495,-90.3103,16.1,27.6,11111222
BP,ioos:station:wmo:42907:1,2022-06-10T04:01:00Z,27.1495,-90.3103,15.9,27.9,11111222
BP,ioos:station:wmo:42907:1,2022-06-10T04:11:00Z,27.1495,-90.3103,16.3,28.1,11111222
BP,ioos:station:wmo:42907:1,2022-06-10T04:21:00Z,27.1495,-90.3103,16.2,27.9,11111222
BP,ioos:station:wmo:42907:1,2022-06-10T04:31:00Z,27.1495,-90.3103,16.4,27.8,11111222
BP,ioos:station:wmo:42907:1,2022-06-10T04:41:00Z,27.1495,-90.3102,16.4,27.7,11111222
BP,ioos:station:wmo:42907:1,2022-06-10T04:51:00Z,27.1495,-90.3103,16.4,27.5,11111222
BP,ioos:station:wmo:42907:1,2022-06-10T05:01:00Z,27.1495,-90.3102,16.4,27.6,11111222
BP,ioos:station:wmo:42907:1,2022-06-10T05:11:00Z,27.1495,-90.3103,16.4,27.6,11111222
BP,ioos:station:wmo:42907:1,2022-06-10T05:21:00Z,27.1495,-90.3103,16.3,27.5,11111222
BP,ioos:station:wmo:42907:1,2022-06-10T05:31:00Z,27.1495,-90.3102,16.3,27.6,11111222
BP,ioos:station:wmo:42907:1,2022-06-10T05:41:00Z,27.1495,-90.3103,16.3,27.5,11111222
BP,ioos:station:wmo:42907:1,2022-06-10T05:51:00Z,27.1495,-90.3103,16.3,27.5,11111222
BP,ioos:station:wmo:42907:1,2022-06-10T06:01:00Z,27.1495,-90.3103,16.2,27.5,11111222
BP,ioos:station:wmo:42907:1,2022-06-10T06:11:00Z,27.1495,-90.3103,16.3,27.7,11111222
BP,ioos:station:wmo:42907:1,2022-06-10T06:21:00Z,27.1495,-90.3103,16.3,28.0,11111222
BP,ioos:station:wmo:42907:1,2022-06-10T06:31:00Z,27.1495,-90.3103,16.3,28.1,11111222
BP,ioos:station:wmo:42907:1,2022-06-10T06:41:00Z,27.1495,-90.3103,16.2,28.1,11111222
BP,ioos:station:wmo:42907:1,2022-06-10T06:51:00Z,27.1495,-90.3103,16.2,28.1,11111222
BP,ioos:station:wmo:42907:1,2022-06-10T07:01:00Z,27.1495,-90.3103,16.3,28.1,11111222
BP,ioos:station:wmo:42907:1,2022-06-10T07:11:00Z,27.1495,-90.3103,16.3,28.1,11111222
BP,ioos:station:wmo:42907:1,2022-06-10T07:21:00Z,27.1495,-90.3103,16.3,28.1,11111222
BP,ioos:station:wmo:42907:1,2022-06-10T07:31:00Z,27.1495,-90.3103,16.1,28.1,11111222
BP,ioos:station:wmo:42907:1,2022-06-10T07:42:00Z,27.1495,-90.3103,16.2,28.1,11111222
BP,ioos:station:wmo:42907:1,2022-06-10T07:52:00Z,27.1495,-90.3103,16.3,28.1,11111222
BP,ioos:station:wmo:42907:1,2022-06-10T08:02:00Z,27.1495,-90.3102,16.4,28.1,11111222
BP,ioos:station:wmo:42907:1,2022-06-10T08:12:00Z,27.1495,-90.3102,16.4,28.1,11111222
BP,ioos:station:wmo:42907:1,2022-06-10T08:22:00Z,27.1495,-90.3102,16.4,28.1,11111222
BP,ioos:station:wmo:42907:1,2022-06-10T08:32:00Z,27.1495,-90.3102,16.4,28.1,11111222
BP,ioos:station:wmo:42907:1,2022-06-10T08:42:00Z,27.1495,-90.3102,16.3,28.1,11111222
BP,ioos:station:wmo:42907:1,2022-06-10T08:52:00Z,27.1495,-90.3102,16.4,28.1,11111222
BP,ioos:station:wmo:42907:1,2022-06-10T09:02:00Z,27.1495,-90.3102,16.4,28.1,11111222
BP,ioos:station:wmo:42907:1,2022-06-10T09:12:00Z,27.1495,-90.3103,16.4,28.1,11111222
BP,ioos:station:wmo:42907:1,2022-06-10T09:22:00Z,27.1495,-90.3102,16.4,28.1,11111222
BP,ioos:station:wmo:42907:1,2022-06-10T09:32:00Z,27.1495,-90.3103,16.4,28.1,11111222
BP,ioos:station:wmo:42907:1,2022-06-10T09:42:00Z,27.1495,-90.3102,16.4,28.1,11111222